Location: Caualo
(45.5667°N, 10.8667°E)
Time: 01:09:35
(UTC+00:00)

Daily predictions for brighter satellites

Satellite Brightness Start Highest point End
(mag) Time Altitude Azimuth Time Altitude Azimuth Time Altitude Azimuth
STARLINK-1268 3.8 00:04:29 41° ENE 00:04:29 41° ENE 00:06:39 10° ENE
STARLINK-1301 3.3 00:03:56 71° SE 00:03:56 71° SE 00:07:45 10° ENE
STARLINK-1303 3.3 00:05:53 69° SE 00:05:53 69° SE 00:09:31 10° ENE
Cosmos 1570 Rocket 4.0 00:04:53 44° SSW 00:06:38 87° WNW 00:11:56 10° NNE
STARLINK-66 3.2 00:07:08 67° N 00:07:08 67° N 00:10:11 10° NE
Cosmos 1709 Rocket 3.9 00:05:05 39° S 00:07:35 86° W 00:13:49 10° N
Cosmos 1400 Rocket 3.8 00:03:40 10° N 00:07:38 42° ENE 00:09:10 29° SE
Cosmos 1763 Rocket 3.9 00:05:57 34° WSW 00:07:50 53° WNW 00:12:48 10° NNE
STARLINK-1316 3.5 00:09:24 51° ENE 00:09:24 51° ENE 00:11:50 10° ENE
Cosmos 2227 Rocket 3.1 00:04:17 10° NW 00:09:13 31° WSW 00:10:10 30° WSW
STARLINK-1312 3.2 00:09:13 75° SSE 00:09:14 75° SE 00:13:00 10° ENE
STARLINK-1257 3.4 00:10:14 53° ENE 00:10:14 53° ENE 00:12:44 10° ENE
STARLINK-1256 3.4 00:11:11 54° ENE 00:11:11 54° ENE 00:13:42 10° ENE
STARLINK-58 3.8 00:11:42 41° E 00:11:42 41° E 00:13:59 10° ENE
STARLINK-1213 3.4 00:12:02 56° ENE 00:12:02 56° ENE 00:14:35 10° ENE
STARLINK-1263 3.3 00:12:53 57° ENE 00:12:53 57° ENE 00:15:28 10° ENE
STARLINK-1259 3.3 00:13:47 59° ENE 00:13:47 59° ENE 00:16:24 10° ENE
STARLINK-1265 3.2 00:14:09 62° ENE 00:14:09 62° ENE 00:16:51 10° ENE
Cosmos 2084 Rocket 3.4 00:09:14 10° NW 00:13:42 77° SW 00:14:58 46° SSE
STARLINK-1285 3.2 00:14:38 61° NE 00:14:38 61° NE 00:17:17 10° ENE
SL-16 R/B 3.4 00:10:23 13° SE 00:15:37 47° ENE 00:21:31 10° N
STARLINK-1296 3.2 00:16:22 64° NE 00:16:22 64° NE 00:19:05 10° ENE
Cosmos 1758 Rocket 3.6 00:15:28 51° SW 00:16:27 71° W 00:20:53 10° N
Cosmos 2298 Rocket 4.3 00:11:18 10° NNW 00:16:37 65° ENE 00:19:50 24° SE
STARLINK-1260 3.1 00:17:14 66° NE 00:17:14 66° NE 00:20:00 10° ENE
STARLINK-1318 3.1 00:18:06 68° NE 00:18:06 68° NE 00:20:54 10° ENE
STARLINK-75 3.2 00:18:02 62° NW 00:18:13 63° NNW 00:21:27 10° NE
STARLINK-1275 3.1 00:18:59 69° NE 00:18:59 69° NE 00:21:49 10° ENE
STARLINK-48 3.8 00:19:05 46° SE 00:19:05 46° SE 00:22:41 10° ENE
STARLINK-1309 3.0 00:19:50 70° NNE 00:19:50 70° NNE 00:22:41 10° ENE
STARLINK-1282 3.0 00:20:42 71° NNE 00:20:42 71° NNE 00:23:35 10° ENE
IRAS Rocket 4.2 00:18:06 32° SSE 00:20:48 88° ENE 00:26:22 10° NNW
STARLINK-1283 3.5 00:20:03 51° WSW 00:21:03 87° NW 00:25:12 10° ENE
STARLINK-1313 3.0 00:21:38 69° NNW 00:21:38 69° NNW 00:24:42 10° NE
STARLINK-80 3.3 00:21:07 61° WSW 00:21:43 86° NNW 00:25:32 10° ENE
STARLINK-1279 3.0 00:22:33 68° NNW 00:22:33 68° NNW 00:25:38 10° NE
STARLINK-1298 3.0 00:23:16 73° N 00:23:16 73° N 00:26:15 10° NE
STARLINK-1293 3.0 00:24:09 73° N 00:24:09 73° N 00:27:11 10° NE
SL-16 R/B 3.5 00:22:44 21° SE 00:25:15 30° ESE 00:30:07 10° NE
Cosmos 2208 Rocket 4.1 00:23:37 39° SW 00:25:38 73° WNW 00:31:02 10° NNE
STARLINK-1255 3.0 00:25:54 71° NNW 00:25:54 71° NNW 00:28:59 10° NE
STARLINK-22 3.1 00:26:16 64° WNW 00:26:28 67° NNW 00:29:41 10° NE
STARLINK-1297 3.2 00:26:32 65° WSW 00:27:01 84° NNW 00:30:38 10° ENE
STARLINK-1311 3.2 00:28:27 56° NNW 00:28:28 56° NNW 00:31:23 10° NE
Cosmos 2285 Rocket 4.2 00:23:07 10° NNW 00:29:18 56° WSW 00:31:55 34° SSW
MOZ.5/SAFIR/RUBIN 5/SL-8 4.0 00:29:16 28° SSE 00:31:37 65° ENE 00:36:14 10° N
USA 81 4.4 00:30:17 35° SW 00:32:10 53° W 00:37:21 10° N
CZ-2D R/B 2.9 00:27:30 10° NNE 00:32:27 43° E 00:35:02 25° SSE
USA 215 3.3 00:28:06 17° SSE 00:33:12 57° SW 00:39:40 10° WNW
Cosmos-2242 3.2 00:29:23 10° NNW 00:33:33 55° W 00:34:24 46° SW
Meteor 2-10 Rocket 4.2 00:29:16 10° NNW 00:33:59 38° W 00:35:16 32° SW
Cosmos 1953 Rocket 3.5 00:33:32 46° SSW 00:34:48 82° W 00:39:14 10° N
Cosmos 2221 3.9 00:32:20 10° N 00:36:21 35° ENE 00:39:28 15° SE
STARLINK-42 3.9 00:36:26 34° WNW 00:37:17 43° NNW 00:40:18 10° NE
BREEZE-M R/B 3.8 00:31:54 10° W 00:37:31 48° N 00:40:36 10° ENE
STARLINK-1310 4.4 00:37:58 34° SE 00:38:14 35° SE 00:42:01 10° ENE
STARLINK-1029 2.8 00:39:04 81° ESE 00:39:04 81° ESE 00:42:11 10° ENE
STARLINK-34 2.8 00:40:02 72° WNW 00:40:09 73° NNW 00:43:14 10° NE
CZ-4C R/B 3.8 00:38:34 28° SSE 00:40:48 68° ENE 00:45:13 10° N
STARLINK-41 3.9 00:40:11 33° WNW 00:41:01 42° NNW 00:43:56 10° NE
STARLINK-60 3.5 00:37:56 10° NW 00:41:05 58° NNE 00:44:14 10° ESE
GP-B 3.1 00:36:49 10° N 00:41:17 77° E 00:42:59 37° S
STARLINK-1272 3.5 00:42:02 39° W 00:43:06 62° NNW 00:46:38 10° NE
STARLINK-1319 4.3 00:42:43 36° SSE 00:43:10 38° SE 00:47:01 10° ENE
Cosmos 1315 Rocket 4.0 00:39:29 10° N 00:43:11 37° ENE 00:45:45 17° SE
Cosmos 540 Rocket 3.9 00:41:07 31° SW 00:43:19 52° WNW 00:48:21 10° NNE
Cosmos 1842 Rocket 4.3 00:39:00 10° N 00:43:22 50° ENE 00:46:04 21° SE
STARLINK-62 2.9 00:43:45 63° WNW 00:44:01 68° NNW 00:47:04 10° NE
Cosmos 2360 Rocket 4.1 00:43:58 11° SE 00:47:39 20° E 00:51:37 10° NE
STARLINK-1277 4.1 00:47:31 38° SSE 00:48:08 41° SE 00:52:02 10° ENE
STARLINK-1307 3.7 00:46:48 33° W 00:48:16 61° NNW 00:51:58 10° NE
Helios 1B rocket 4.1 00:45:35 10° NNW 00:48:55 24° WNW 00:50:24 19° W
STARLINK-1290 3.8 00:50:11 30° W 00:51:48 58° NNW 00:55:29 10° NE
STARLINK-1276 4.1 00:52:19 39° S 00:53:06 45° SE 00:57:05 10° ENE
Cosmos 2058 4.5 00:50:48 17° SE 00:53:17 30° E 00:56:58 10° NNE
Shenzhou-11 Module 4.3 00:56:40 12° ESE 00:56:40 12° ESE 00:56:54 10° ESE
Cosmos 1980 Rocket 2.6 00:51:50 26° SW 00:54:48 53° WNW 01:00:22 10° NNE
Cosmos 2074 Rocket 4.0 00:51:22 28° S 00:54:57 88° E 01:01:16 10° N
STARLINK-1305 4.0 00:57:04 40° S 00:58:02 49° SE 01:02:03 10° ENE
STARLINK-1306 3.9 00:57:24 40° S 00:58:29 52° SE 01:02:35 10° ENE
STARLINK-1317 4.1 00:56:33 22° W 00:58:48 52° NNW 01:02:38 10° NE
Cosmos 1455 4.1 00:57:34 10° NW 00:59:59 17° W 01:00:05 17° W
CZ-4B R/B 4.0 00:56:11 10° NNE 01:01:22 56° E 01:04:34 23° S
STARLINK-1274 4.1 01:00:55 23° W 01:02:50 47° NNW 01:06:17 10° NE
STARLINK-1262 3.9 01:01:53 39° SSW 01:03:02 53° SE 01:07:05 10° ENE
STARLINK-1291 4.2 01:04:16 20° W 01:06:32 47° NNW 01:10:10 10° NE
Meteor 1-11 4.4 01:03:54 29° SW 01:06:43 59° WNW 01:12:15 10° N
STARLINK-1300 3.8 01:06:40 38° SSW 01:08:00 58° SE 01:12:04 10° ENE
STARLINK-1264 4.3 01:07:26 18° W 01:09:52 45° NNW 01:13:30 10° NE
ADEOS II 3.2 01:05:38 10° NNE 01:10:31 37° E 01:14:40 14° SSE
Cosmos 2263 Rocket 2.1 01:06:04 10° NNW 01:11:39 69° WSW 01:15:58 17° SSE
STARLINK-1295 3.7 01:11:26 36° SSW 01:12:57 63° SE 01:17:03 10° ENE
NOSS 2-1 (C) 2.8 01:12:04 43° SSW 01:13:05 80° SE 01:16:40 10° NE
STARLINK-1267 4.3 01:10:39 17° W 01:13:15 44° NNW 01:16:51 10° NE
IRS-1D 4.2 01:08:44 10° NNE 01:13:51 50° E 01:17:31 18° S
STARLINK-29 3.6 01:10:42 10° NW 01:13:52 56° NNE 01:17:00 10° ESE
UNK 3.7 01:11:40 28° S 01:14:03 66° W 01:18:37 10° NNW
SL-4 R/B 2.2 01:10:41 10° WNW 01:15:32 78° SSW 01:20:11 10° SE
AQUA 3.9 01:10:48 10° NNE 01:15:35 73° ESE 01:18:24 24° S
STARLINK-64 3.2 01:14:12 33° WSW 01:15:40 78° NNW 01:19:16 10° ENE
USA 229 DEB 3.8 01:10:10 10° NW 01:17:27 76° SW 01:25:04 10° SSE
USA 229 3.8 01:10:16 10° NW 01:17:33 77° SW 01:25:11 10° SSE
STARLINK-1287 3.6 01:16:13 33° SW 01:17:55 68° SE 01:22:02 10° ENE
NOSS 2-1 (D) 2.8 01:16:50 39° SW 01:17:58 89° W 01:21:35 10° NE
NOSS 3-1 (C) 4.1 01:10:48 10° NW 01:18:21 71° WSW 01:26:59 10° SSE
NPP 3.6 01:14:07 10° NNE 01:19:32 87° WNW 01:22:54 24° SSW
STARLINK-1207 4.5 01:17:09 14° W 01:20:03 41° NNW 01:23:37 10° NE
Cosmos 2184 Rocket 4.1 01:16:26 25° SSW 01:20:08 64° W 01:26:17 10° N
ARIANE 5 R/B 4.2 01:15:58 10° NE 01:20:12 27° E 01:24:23 10° SSE
CZ-4C R/B 4.2 01:18:22 10° W 01:22:48 24° NNW 01:27:55 10° NNE
BREEZE-M DEB (TANK) 2.2 01:23:14 34° WNW 01:23:51 54° NNW 01:26:40 10° ENE
Cosmos 1892 3.1 01:21:52 23° SSE 01:24:00 59° E 01:27:45 10° NNE
STARLINK-1299 3.6 01:24:06 27° SW 01:26:23 88° SSE 01:30:40 10° ENE
NOSS 3-1 (A) 4.1 01:18:57 10° NW 01:26:33 88° SW 01:35:16 10° SE
STARLINK-1302 3.5 01:25:46 28° SW 01:27:51 79° SE 01:32:00 10° ENE
Cosmos 1610 Rocket 4.4 01:24:10 21° SSW 01:28:24 81° W 01:34:38 10° N
BREEZE-M DEB (TANK) 2.7 01:26:25 10° WNW 01:28:39 36° N 01:31:10 10° E
Cosmos 1869 3.2 01:27:03 10° NNW 01:30:54 67° W 01:33:00 25° S
STARLINK-1273 3.5 01:30:32 26° SW 01:32:49 85° SSE 01:36:59 10° ENE
Cosmos 2322 Rocket 2.2 01:29:42 22° SSW 01:33:23 84° ESE 01:39:02 10° NNE
In-Cosmos 22 Rocket 4.2 01:31:02 19° S 01:35:07 85° E 01:40:37 10° NNE
STARLINK-1288 3.6 01:35:19 24° WSW 01:37:47 89° NNW 01:41:57 10° ENE
STARLINK-61 3.4 01:35:51 27° SW 01:37:52 72° SE 01:41:48 10° ENE
STARLINK-81 4.5 01:38:56 22° S 01:40:25 30° SE 01:43:37 10° ENE
Resurs 1-4 Rocket 2.6 01:36:17 10° N 01:41:24 49° WNW 01:44:54 19° SW
STARLINK-54 4.3 01:40:39 23° S 01:42:11 34° SE 01:45:29 10° ENE
Cosmos 1076 Rocket 3.5 01:39:51 21° S 01:42:46 85° W 01:47:10 10° N
STARLINK-1308 3.6 01:40:08 21° WSW 01:42:49 83° NNW 01:46:59 10° ENE
STARLINK-77 4.4 01:42:03 22° S 01:43:39 32° SE 01:46:54 10° ENE
Cosmos 2151 4.0 01:40:33 10° SSE 01:44:35 42° E 01:48:39 10° NNE
Cosmos 1125 Rocket 4.0 01:40:42 10° NW 01:45:30 39° WSW 01:48:54 18° SSW
H-2A R/B 3.9 01:42:45 10° SE 01:46:43 33° ENE 01:50:46 10° N
STARLINK-79 4.2 01:46:45 22° S 01:48:30 35° SE 01:51:50 10° ENE
STARLINK-52 2.8 01:46:00 10° WNW 01:49:13 87° SW 01:52:26 10° SE
Cosmos 962 Rocket 4.5 01:44:45 14° S 01:50:05 89° E 01:56:20 10° N
STARLINK-78 4.2 01:48:20 22° SSW 01:50:08 36° SE 01:53:30 10° ENE
STARLINK-57 4.0 01:49:58 22° SSW 01:51:49 39° SE 01:55:14 10° ENE
Cosmos 1408 2.6 01:49:31 17° S 01:52:13 77° E 01:55:54 10° NNE
STARLINK-1304 3.7 01:49:41 17° WSW 01:52:46 73° NNW 01:56:55 10° NE
STARLINK-49 4.1 01:51:26 21° SSW 01:53:20 38° SE 01:56:44 10° ENE
Cosmos 2154 Rocket 4.3 01:49:51 18° SSW 01:54:30 55° WNW 02:00:37 10° N
STARLINK-27 4.0 01:53:02 21° SSW 01:55:01 40° SE 01:58:26 10° ENE
GEOS 3 Rocket 3.6 01:51:01 10° SSE 01:56:07 59° SW 02:01:21 10° NW
STARLINK-74 4.0 01:54:35 21° SSW 01:56:37 41° SE 02:00:03 10° ENE
STARLINK-39 3.9 01:56:10 20° SSW 01:58:15 42° SE 02:01:42 10° ENE
Cosmos 1825 2.6 01:55:27 12° S 01:58:49 60° E 02:02:33 10° NNE
STARLINK-1278 4.1 01:55:21 14° WSW 01:58:58 62° NNW 02:03:12 10° NE
Cosmos 2237 4.3 01:54:31 15° SSW 01:59:14 76° ESE 02:04:59 10° NNE
SL-16 R/B 3.4 01:55:29 17° SSW 01:59:24 32° W 02:04:51 10° NNW
STARLINK-31 3.9 01:57:45 20° SSW 01:59:54 44° SE 02:03:23 10° ENE
STARLINK-1280 4.1 01:57:08 13° WSW 02:00:49 60° NNW 02:05:02 10° NE
SL-08 R/B 3.2 01:56:29 10° SSE 02:01:08 89° ENE 02:05:45 10° NNW
STARLINK-69 3.7 01:59:20 20° SSW 02:01:32 49° SE 02:05:01 10° ENE
STARLINK-21 3.7 02:00:55 19° SSW 02:03:11 48° SE 02:06:41 10° ENE
STARLINK-45 3.6 02:02:35 19° SW 02:04:56 54° SE 02:08:30 10° ENE
IRS-P3 4.1 01:59:35 10° NNE 02:04:57 84° WNW 02:09:52 12° SSW
STARLINK-1048 4.4 02:02:18 17° SSW 02:05:07 40° SE 02:09:01 10° ENE
Cosmos 1844 Rocket 2.9 02:00:35 10° NNW 02:06:13 74° ENE 02:11:46 10° SSE
NOSS 2-1 (E) 4.2 02:04:58 13° WSW 02:07:34 33° NW 02:11:02 10° NNE
STARLINK-76 3.6 02:05:36 18° SW 02:08:03 53° SE 02:11:36 10° ENE
STARLINK-70 3.6 02:05:59 18° SW 02:08:30 56° SE 02:12:07 10° ENE
SL-16 R/B 2.8 02:04:36 15° SW 02:09:07 46° WNW 02:14:36 10° NNE
STARLINK-1286 4.1 02:05:37 12° WSW 02:09:28 58° NNW 02:13:36 10° NE
STARLINK-23 3.6 02:07:11 18° SW 02:09:40 54° SE 02:13:14 10° ENE
STARLINK-1049 4.3 02:07:06 16° SSW 02:10:05 43° SE 02:14:02 10° ENE
STARLINK-32 3.5 02:08:37 18° SW 02:11:07 56° SE 02:14:39 10° ENE
CZ-2D R/B 3.3 02:07:57 10° N 02:12:19 28° WNW 02:16:21 12° WSW
STARLINK-1281 4.1 02:08:48 11° WSW 02:12:42 57° NNW 02:16:48 10° NE
STARLINK-40 3.5 02:10:18 17° SW 02:12:55 58° SE 02:16:30 10° ENE
Cosmos 2221 3.9 02:10:17 10° NW 02:13:42 23° W 02:16:16 14° SW
COSMOS 2428 4.2 02:08:47 10° SSE 02:13:42 31° ESE 02:18:39 10° NE
STARLINK-44 3.5 02:11:49 17° SW 02:14:29 60° SE 02:18:05 10° ENE
CZ-4C R/B 4.3 02:11:11 10° SE 02:14:41 45° ENE 02:18:09 10° N
STARLINK-1377 4.5 02:10:56 10° NW 02:14:51 51° NNE 02:18:46 10° ESE
STARLINK-1051 4.2 02:11:51 15° SSW 02:15:01 47° SE 02:19:01 10° ENE
Cosmos 773 Rocket 4.1 02:11:02 12° SSW 02:15:55 87° ESE 02:21:16 10° NNE
STARLINK-37 3.3 02:13:33 16° SW 02:16:18 66° SE 02:19:55 10° ENE
STARLINK-60 4.2 02:14:29 10° W 02:16:55 20° SW 02:19:21 10° S
STARLINK-1310 4.2 02:13:39 10° WSW 02:17:42 54° NNW 02:21:47 10° NE
STARLINK-36 3.4 02:14:56 16° SW 02:17:44 64° SE 02:21:20 10° ENE
FALCON 9 DEB 3.0 02:15:05 10° WNW 02:18:33 79° SSW 02:22:00 10° SE
STARLINK-1353 4.4 02:15:16 10° NW 02:19:13 54° NNE 02:23:09 10° ESE
STARLINK-63 3.3 02:18:10 15° SW 02:21:06 71° SE 02:24:42 10° ENE
STARLINK-35 3.3 02:19:32 14° SW 02:22:27 70° SE 02:26:01 10° ENE
STARLINK-1319 4.3 02:18:39 10° W 02:22:41 51° NNW 02:26:45 10° NE
STARLINK-1375 4.3 02:19:38 10° NW 02:23:36 57° NNE 02:27:34 10° ESE
STARLINK-51 3.3 02:21:14 14° SW 02:24:16 73° SE 02:27:52 10° ENE
Cosmos 2366 rocket 4.1 02:18:39 10° S 02:24:54 88° E 02:31:16 10° N
STARLINK-1028 3.9 02:21:25 13° SW 02:24:56 56° SE 02:29:01 10° ENE
STARLINK-30 3.3 02:22:49 13° SW 02:25:56 75° SE 02:29:33 10° ENE
STARLINK-72 3.2 02:24:13 13° SW 02:27:19 77° SE 02:30:53 10° ENE
STARLINK-1277 4.4 02:23:40 10° W 02:27:41 48° NNW 02:31:44 10° NE
STARLINK-1350 4.2 02:23:58 10° NW 02:27:57 60° NNE 02:31:56 10° ESE
Shenzhou-11 Module 2.0 02:26:47 12° WSW 02:28:52 37° S 02:31:10 10° ESE
STARLINK-1021 3.8 02:26:14 12° SW 02:29:56 61° SE 02:34:02 10° ENE
Cosmos 2058 4.3 02:27:00 11° SW 02:30:11 25° WNW 02:33:42 10° NNW
STARLINK-59 3.2 02:27:25 12° SW 02:30:40 85° SSE 02:34:15 10° ENE
Cosmos 2360 Rocket 2.3 02:25:44 11° SW 02:31:05 66° WNW 02:36:43 10° NNE
Cosmos 1933 3.8 02:27:08 10° N 02:31:09 63° E 02:35:08 10° SSE
STARLINK-1352 4.1 02:28:09 10° NW 02:32:08 64° NNE 02:36:07 10° ESE
STARLINK-1010 3.8 02:28:17 12° SW 02:32:12 67° SE 02:36:25 10° ENE
STARLINK-56 3.2 02:29:04 12° SW 02:32:25 84° SSE 02:36:04 10° ENE
STARLINK-1276 4.5 02:28:43 10° W 02:32:43 46° NNW 02:36:44 10° NE
STARLINK-73 3.3 02:30:38 11° SW 02:34:03 86° SE 02:37:42 10° ENE
Cosmos 1328 Rocket 3.7 02:30:18 10° N 02:34:43 78° E 02:39:04 10° SSE
STARLINK-1019 3.8 02:30:59 11° SW 02:34:52 66° SE 02:39:00 10° ENE
STARLINK-38 3.3 02:32:12 11° WSW 02:35:41 89° SSE 02:39:20 10° ENE
STARLINK-1368 4.0 02:32:49 10° NW 02:36:51 68° NNE 02:40:51 10° ESE
STARLINK-65 3.3 02:33:46 11° WSW 02:37:19 89° NNW 02:40:58 10° ENE
STARLINK-68 3.3 02:34:23 10° WSW 02:38:01 84° NNW 02:41:41 10° ENE
STARLINK-53 3.3 02:35:25 10° WSW 02:39:02 84° NNW 02:42:41 10° ENE
STARLINK-1012 3.7 02:35:47 10° SW 02:39:51 72° SE 02:44:00 10° ENE
STARLINK-1369 3.9 02:37:15 10° NW 02:41:18 72° NNE 02:45:19 10° ESE
STARLINK-50 3.4 02:37:30 10° WSW 02:41:18 88° NW 02:45:08 10° ENE
SL-24 DEB 4.5 02:37:49 10° N 02:42:18 53° W 02:46:46 10° SSW
Cosmos 2333 Rocket 2.6 02:38:58 10° SSW 02:44:33 65° ESE 02:50:11 10° NNE
STARLINK-1372 3.7 02:41:26 10° WNW 02:45:26 77° NNE 02:49:23 10° ESE
Meteor 1-28 Rocket 3.7 02:42:11 10° SSW 02:45:43 39° W 02:49:16 10° NNW
STARLINK-71 3.6 02:42:03 10° WSW 02:46:05 81° NNW 02:50:07 10° ENE
Landsat 5 3.6 02:42:26 10° SSE 02:46:57 82° WSW 02:51:25 10° NNW
Cosmos 2219 Rocket 2.6 02:43:08 10° SSW 02:48:39 65° ESE 02:54:12 10° NNE
STARLINK-29 4.2 02:47:17 10° W 02:49:46 21° SW 02:52:14 10° S
STARLINK-1026 3.6 02:45:39 10° SW 02:49:47 83° SSE 02:53:57 10° ENE
Cosmos 1727 Rocket 4.0 02:43:43 10° N 02:49:54 80° W 02:56:04 10° S
Cosmos 2322 3.8 02:44:20 10° SSW 02:50:03 83° WNW 02:55:50 10° NNE
ADEOS II 3.1 02:45:30 10° N 02:50:07 32° WNW 02:54:44 10° SW
STARLINK-1378 3.7 02:46:09 10° WNW 02:50:11 82° NNE 02:54:13 10° ESE
IDEFIX/ARIANE 42P 2.6 02:48:37 10° NNE 02:53:55 83° WNW 02:59:10 10° SSW
Cosmos 1782 4.0 02:50:19 10° N 02:54:13 46° ENE 02:58:03 10° SSE
SL-4 R/B 3.7 02:51:27 10° W 02:54:38 18° SW 02:57:45 10° S
STARLINK-1379 3.6 02:50:39 10° WNW 02:54:42 87° NE 02:58:44 10° ESE
STARLINK-1013 3.7 02:50:38 10° WSW 02:54:47 89° SSE 02:58:57 10° ENE
Cosmos 1606 2.9 02:51:34 10° NNW 02:55:14 51° W 02:58:55 10° S
ERS-2 2.8 02:51:57 10° SSW 02:55:19 35° W 02:58:43 10° NNW
